[[{"header":{"parameterUnit":"m.s-1","parameterCategory":1,"la1":30.2991,"la2":30.254,"lo1":-89.0895,"lo2":-89.0444,"dy":0.0017,"dx":0.0017,"nx":28,"ny":28,"refTime":"2025-06-16T03:00:00:Z","depth":0,"parameterNumber":2,"parameterNumberName":"U-component_of_WINDS"},"data":[0,0,0,0,0,0,0,0,0,0,0,0,0,0,0,0,0,0,0,0,0,0,0,0,0,0,0,0,0,0,0,0,0,0,0,0,0,0,0,0,0,0,0,0,0,0,0,0,0,0,0,0,0,0,0,0,0,0,2.0716,2.0716,0,2.0777,2.0778,2.0779,2.0754,2.0753,2.0751,2.075,2.0812,2.0814,2.0817,0,0,0,0,0,0,0,0,0,0,0,0,0,2.0573,2.0576,2.0716,2.0716,2.0717,2.0777,2.0778,2.0779,2.0755,2.0753,2.0751,2.0749,2.0811,2.0814,2.0818,0,0,0,0,0,0,0,0,0,0,0,0,0,2.0635,2.0577,2.0716,2.0712,2.0713,2.0777,2.0778,2.0779,2.0755,2.0753,2.0751,2.0749,2.0809,2.0814,2.0818,2.0889,0,0,2.0832,2.0834,0,0,0,0,0,0,0,0,2.0631,2.064,2.0712,2.0713,2.0713,2.0756,2.075,2.0816,2.0756,2.0739,2.075,2.0748,2.0795,2.08,2.0816,2.0892,2.0894,2.0832,2.0835,2.0837,2.0838,0,0,0,0,0,0,0,2.0627,2.0637,2.074,2.0713,2.0714,2.0707,2.0713,2.0763,2.0778,2.074,2.0739,2.0746,2.0795,2.0812,2.0818,2.0895,2.0832,2.0836,2.0839,2.084,2.1028,2.103,0,0,0,0,0,0,2.0623,2.0634,2.0738,2.0742,2.0666,2.0711,2.0718,2.0744,2.0777,2.078,2.0748,2.0745,2.0806,2.0813,2.082,2.0902,2.0837,2.0841,2.0843,2.1026,2.1028,2.1031,0,0,0,0,0,0,2.062,2.0633,2.0736,2.0688,2.07,2.0716,2.0745,2.0747,2.0764,2.0783,2.0786,2.0763,2.0804,2.0814,2.0871,2.0904,2.0843,2.0847,2.1023,2.1026,2.103,2.1069,0,0,0,0,0,0,2.0616,2.0632,2.066,2.0688,2.0703,2.0787,2.0748,2.075,2.0772,2.0769,2.0799,2.0801,2.0803,2.0865,2.0876,2.0909,2.085,2.102,2.1024,2.1029,2.1064,2.1073,2.108,0,0,0,0,0,2.0611,2.0669,2.0661,2.0674,2.0738,2.0789,2.0797,2.0799,2.0775,2.0802,2.0814,2.08,2.0899,2.0871,2.0883,2.0918,2.1018,2.1023,2.1028,2.1061,2.1071,2.108,0,0,0,0,0,0,2.0643,2.0672,2.0665,2.0733,2.0759,2.0785,2.0819,2.081,2.0843,2.0838,2.0838,2.0845,2.0903,2.0917,2.0885,2.0986,2.0955,2.0963,2.0975,2.0985,2.0993,2.0988,2.0854,0,0,0,0,0,2.0658,2.0698,2.0721,2.0779,2.0793,2.0804,2.0826,2.0825,2.0851,2.0862,2.0878,2.0903,2.094,2.0964,2.0998,2.1067,2.1071,2.1097,2.1105,2.1111,2.1117,2.1151,2.1162,2.1048,2.1048,2.1048,0,0,2.069,2.0711,2.0736,2.0786,2.0806,2.0845,2.0813,2.0857,2.0886,2.0868,2.0923,2.0936,2.0964,2.1026,2.1055,2.1039,2.115,2.1118,2.1123,2.1125,2.1158,2.1168,2.1178,2.1051,2.1051,2.105,0,0,2.0767,2.0788,2.0837,2.0857,2.0887,2.0894,2.0906,2.0933,2.0941,2.0996,2.0983,2.1017,2.108,2.11,2.1118,2.1201,2.1188,2.1212,2.1252,2.1286,2.1295,2.1302,2.1329,2.1339,2.1218,2.1219,2.1219,0,2.0802,2.0862,2.0863,2.0908,2.0929,2.0915,2.0964,2.0983,2.1023,2.1037,2.102,2.1097,2.1116,2.1181,2.1201,2.1217,2.1229,2.1208,2.1293,2.1301,2.1309,2.1334,2.1344,2.1221,2.1221,2.1221,2.122,0,2.0901,2.0943,2.0979,2.1017,2.1043,2.109,2.1097,2.1122,2.1119,2.1127,2.1181,2.1203,2.124,2.1256,2.1254,2.1321,2.131,2.1293,2.1261,2.1322,2.1345,2.1355,2.1225,2.1224,2.1223,2.1222,0,0,2.1,2.1038,2.105,2.1066,2.1098,2.113,2.1174,2.1211,2.1232,2.126,2.1295,2.1349,2.1333,2.1353,2.1353,2.1382,2.1442,2.1361,2.1362,2.1373,2.1514,2.1524,2.1536,2.1435,2.1437,2.1438,2.151,0,2.1077,2.1156,2.1158,2.1229,2.1266,2.1253,2.1291,2.1314,2.1323,2.1354,2.1363,2.14,2.1378,2.139,2.1418,2.1429,2.147,2.1424,2.1466,2.1467,2.1457,2.1548,2.156,2.1627,2.152,2.1522,2.1523,0,2.1177,2.1207,2.1282,2.1306,2.1322,2.1357,2.1389,2.142,2.1445,2.1449,2.1471,2.1465,2.1509,2.1477,2.1536,2.1504,2.1522,2.1529,2.1532,2.1534,2.1497,2.155,2.1649,2.1658,2.1538,2.1537,2.1536,0,2.1237,2.1297,2.1349,2.1364,2.1394,2.1418,2.1431,2.1454,2.1475,2.1503,2.1516,2.155,2.1567,2.1592,2.1595,2.1572,2.1653,2.1622,2.1655,2.1655,2.1671,2.167,2.1772,2.1687,2.1687,2.1687,2.1687,0,2.1322,2.1367,2.1376,2.1408,2.1458,2.1459,2.1508,2.152,2.154,2.1572,2.1563,2.1594,2.1597,2.1627,2.163,2.1676,2.1685,2.1688,2.1688,2.1687,2.1687,2.1697,2.1691,2.169,2.1689,2.1688,2.1688,0,2.1397,2.1405,2.146,2.1484,2.1491,2.1526,2.1545,2.1575,2.1582,2.1623,2.1633,2.1644,2.168,2.1685,2.1728,2.1729,2.1784,2.178,2.1775,2.1774,2.1806,2.1802,2.1916,2.193,2.1839,2.184,2.1841,0,2.1449,2.1483,2.151,2.1531,2.1546,2.1581,2.1602,2.1604,2.1626,2.1656,2.1681,2.1716,2.1743,2.18,2.1812,2.1843,2.1838,2.1876,2.1843,2.184,2.1835,2.1832,2.1834,2.1882,2.1883,2.1883,2.1884,0,2.1539,2.1541,2.1572,2.1604,2.163,2.1655,2.1679,2.1697,2.1702,2.1727,2.1763,2.1784,2.1827,2.186,2.1891,2.1904,2.1894,2.1895,2.1904,2.1902,2.1897,2.1897,2.179,2.1892,2.1891,2.189,2.189,2.189,2.1602,2.1631,2.1654,2.1688,2.1707,2.1729,2.1756,2.1767,2.1798,2.1832,2.1832,2.187,2.1892,2.1932,2.1947,2.1976,2.1964,2.1978,2.1981,2.1983,2.1985,2.1894,2.1982,2.1982,2.1982,2.1982,2.1982,0,2.1689,2.1703,2.1735,2.1768,2.1795,2.1784,2.181,2.1832,2.1866,2.1888,2.1915,2.1955,2.1987,2.2001,2.2032,2.2053,2.2049,2.206,2.2058,2.206,2.1996,2.1984,2.2063,2.2063,2.2063,2.2063,2.2063,2.2063,2.1738,2.1785,2.179,2.1845,2.1859,2.1897,2.1912,2.1931,2.1948,2.1993,2.202,2.2029,2.2046,2.2078,2.2106,2.2109,2.212,2.2133,2.2134,2.2073,2.2065,2.2057,2.2045,2.2136,2.2136,2.2195,2.2196,2.2196]},{"header":{"parameterUnit":"m.s-1","parameterCategory":1,"la1":30.2991,"la2":30.254,"lo1":-89.0895,"lo2":-89.0444,"dy":0.0017,"dx":0.0017,"nx":28,"ny":28,"refTime":"2025-06-16T03:00:00:Z","depth":0,"parameterNumber":3,"parameterNumberName":"V-component_of_WINDS"},"data":[0,0,0,0,0,0,0,0,0,0,0,0,0,0,0,0,0,0,0,0,0,0,0,0,0,0,0,0,0,0,0,0,0,0,0,0,0,0,0,0,0,0,0,0,0,0,0,0,0,0,0,0,0,0,0,0,0,0,2.8349,2.835,0,2.8431,2.8431,2.8432,2.8386,2.8384,2.8381,2.8379,2.8459,2.8464,2.8468,0,0,0,0,0,0,0,0,0,0,0,0,0,2.8147,2.8151,2.8349,2.835,2.8351,2.843,2.8432,2.8433,2.8386,2.8383,2.8381,2.8378,2.8458,2.8463,2.8468,0,0,0,0,0,0,0,0,0,0,0,0,0,2.8232,2.8152,2.8348,2.8337,2.8337,2.843,2.8432,2.8433,2.8387,2.8383,2.838,2.8377,2.8456,2.8463,2.8469,2.8577,0,0,2.8488,2.8491,0,0,0,0,0,0,0,0,2.8227,2.824,2.8338,2.8338,2.8338,2.8395,2.839,2.8481,2.8388,2.8368,2.8379,2.8375,2.844,2.8448,2.8471,2.858,2.8584,2.8489,2.8493,2.8496,2.8497,0,0,0,0,0,0,0,2.8222,2.8236,2.8381,2.8339,2.834,2.8326,2.8335,2.8407,2.8422,2.8369,2.8366,2.8377,2.844,2.8465,2.8472,2.8585,2.8489,2.8494,2.8498,2.8501,2.8784,2.8787,0,0,0,0,0,0,2.8217,2.8231,2.8378,2.8383,2.8273,2.8333,2.8342,2.838,2.8421,2.8424,2.8379,2.8374,2.8455,2.8465,2.8475,2.8602,2.8495,2.8501,2.8505,2.878,2.8785,2.8789,0,0,0,0,0,0,2.8213,2.8231,2.8375,2.8306,2.8324,2.834,2.8383,2.8383,2.8408,2.8429,2.8431,2.8402,2.8453,2.8466,2.8551,2.8604,2.8504,2.851,2.8776,2.8782,2.8787,2.8858,0,0,0,0,0,0,2.8207,2.8229,2.8272,2.8308,2.8328,2.8452,2.8386,2.8387,2.842,2.8413,2.8451,2.8454,2.8451,2.8542,2.8558,2.8611,2.8515,2.8771,2.8778,2.8785,2.8851,2.8865,2.8877,0,0,0,0,0,2.82,2.8288,2.8274,2.8292,2.8381,2.8455,2.8466,2.8463,2.8424,2.8466,2.8479,2.8453,2.8596,2.8551,2.8568,2.8624,2.8768,2.8776,2.8784,2.8845,2.8862,2.8877,0,0,0,0,0,0,2.8258,2.8293,2.8278,2.8381,2.8415,2.8447,2.85,2.8482,2.8527,2.8519,2.8511,2.852,2.8609,2.8625,2.8575,2.8729,2.8676,2.8688,2.8716,2.8732,2.8745,2.8739,2.852,0,0,0,0,0,2.8282,2.8341,2.8368,2.8456,2.8474,2.8484,2.8516,2.851,2.8545,2.8559,2.8579,2.8613,2.8665,2.87,2.8749,2.8853,2.8859,2.89,2.8913,2.8924,2.8934,2.8988,2.9006,2.8816,2.8816,2.8816,0,0,2.8334,2.836,2.8398,2.8468,2.8494,2.8553,2.8497,2.8562,2.8605,2.8569,2.8651,2.8666,2.8703,2.8798,2.884,2.8814,2.8988,2.8934,2.8943,2.8947,2.8998,2.9016,2.9032,2.8822,2.8821,2.882,0,0,2.8457,2.8484,2.856,2.8587,2.8627,2.8633,2.8651,2.8686,2.8695,2.8777,2.875,2.88,2.8891,2.8918,2.8944,2.9075,2.9052,2.9091,2.916,2.9213,2.9228,2.9241,2.9286,2.9303,2.9102,2.9102,2.9102,0,2.8516,2.8605,2.86,2.8667,2.8698,2.8669,2.8743,2.8769,2.8824,2.8845,2.8814,2.8927,2.895,2.9049,2.9081,2.9103,2.9122,2.9087,2.9226,2.9239,2.9252,2.9295,2.9312,2.9106,2.9106,2.9105,2.9105,0,2.8674,2.8736,2.8791,2.8845,2.8882,2.8952,2.8956,2.8994,2.8984,2.8993,2.9075,2.9101,2.9155,2.9178,2.9169,2.9276,2.9258,2.9227,2.9173,2.9274,2.9314,2.9331,2.9113,2.9111,2.911,2.9109,0,0,2.8837,2.8886,2.8906,2.8929,2.8971,2.9018,2.9086,2.9139,2.917,2.9208,2.9263,2.934,2.9311,2.934,2.9334,2.938,2.948,2.9344,2.9344,2.9367,2.9597,2.9619,2.9638,2.9465,2.9468,2.9471,2.9593,0,2.8962,2.9082,2.9079,2.919,2.9246,2.9218,2.9276,2.9307,2.9316,2.9363,2.9372,2.9427,2.9386,2.9403,2.9447,2.9459,2.9526,2.945,2.9515,2.9517,2.9506,2.9659,2.9683,2.9797,2.9609,2.9611,2.9613,0,2.9124,2.9168,2.9285,2.9316,2.9339,2.9393,2.9439,2.9486,2.9519,2.9522,2.9554,2.9539,2.9606,2.955,2.964,2.9589,2.9615,2.9624,2.9628,2.9633,2.9571,2.9667,2.9834,2.985,2.9638,2.9636,2.9635,0,2.9229,2.9317,2.9398,2.9419,2.9458,2.9495,2.9513,2.9543,2.9574,2.9615,2.9635,2.9682,2.9708,2.9744,2.9742,2.9702,2.9833,2.9777,2.9836,2.9836,2.9864,2.9862,3.0036,2.9883,2.9883,2.9882,2.9882,0,2.9369,2.9441,2.9445,2.9495,2.9574,2.9568,2.9646,2.966,2.9687,2.9737,2.9715,2.9762,2.9757,2.9804,2.9803,2.9877,2.9889,2.9891,2.989,2.9893,2.9893,2.9909,2.9901,2.9887,2.9886,2.9885,2.9884,0,2.95,2.9506,2.9592,2.9621,2.963,2.9687,2.9712,2.9757,2.9764,2.9828,2.9842,2.9852,2.9906,2.9908,2.997,2.9968,3.0058,3.0048,3.0047,3.0045,3.0103,3.0097,3.0293,3.0317,3.0149,3.0151,3.0152,0,2.9588,2.9643,2.9678,2.9711,2.9731,2.9784,2.9815,2.9811,2.9845,2.9886,2.9926,2.9978,3.0019,3.0106,3.0118,3.0165,3.0155,3.022,3.0162,3.0162,3.0154,3.0151,3.0155,3.0231,3.0233,3.0235,3.0236,0,2.9743,2.9743,2.979,2.9838,2.9877,2.9914,2.9949,2.9976,2.9976,3.0014,3.0069,3.0102,3.0164,3.0215,3.026,3.0276,3.0256,3.0255,3.027,3.0273,3.027,3.0271,3.0077,3.025,3.0249,3.0248,3.0247,3.0246,2.9854,2.9901,2.9933,2.9986,3.0011,3.0043,3.0088,3.01,3.0146,3.0197,3.0192,3.0253,3.0282,3.034,3.036,3.0406,3.0383,3.0406,3.0412,3.0417,3.0423,3.0263,3.0414,3.0414,3.0413,3.0413,3.0413,0,3.0007,3.0026,3.0075,3.0124,3.0165,3.0143,3.0179,3.0214,3.0269,3.0298,3.0339,3.0401,3.045,3.0466,3.0513,3.0547,3.0538,3.0559,3.0556,3.0559,3.0442,3.0423,3.0565,3.0565,3.0565,3.0565,3.0565,3.0565,3.0091,3.0169,3.0172,3.0261,3.0278,3.0339,3.0361,3.039,3.0413,3.0484,3.0525,3.0535,3.0558,3.0607,3.065,3.0653,3.067,3.0695,3.0694,3.0583,3.0568,3.0553,3.0536,3.0699,3.0699,3.0808,3.0809,3.0809]}]]